Live-Position
3D-Globus wird geladen...
Über Starlink 2754
Group: 3 satellites
Beschreibung wird geladen...
Nächste Überflüge
Passes for default location (London). Set your location on the main map for personalized predictions.
Höhenverlauf
Loading altitude history...
No altitude history available
Zweizeiliger Elementsatz
1 48641U 21044D 26126.16668980 .00045947 00000-0 14844-2 0 9997
2 48641 53.1589 206.8435 0001227 97.5173 91.6363 15.31676400 5745
Epoch: 6. Mai 2026 •
Age: 5 hours
Aktueller Status
Höhe 474.8 km
Geschwindigkeit 7.63 km/s
Subsatellitenpunkt -13.88°S,
169.56°W
Startdatum 26. Mai 2021
Alter 4.9 years
Typ internet
Startgruppe
Falcon 9 •
Launch 28 •
47 satellites
Starlink 2739
48639
Starlink 2736 48640
Starlink 2646 48642
Starlink 2704 48643
Starlink 2695 48644
Starlink 2732 48646
Starlink 2521 48648
Starlink 2673 48649
Starlink 2672 48650
Starlink 2731 48651
Starlink 2727 48652
Starlink 2720 48653
Starlink 2657 48655
Starlink 2701 48656
Starlink 2734 48657
Starlink 2647 48658
Starlink 2717 48659
Starlink 2726 48662
Starlink 2667 48663
Starlink 2666 48666
...and 26 more
Technische Details
Klassifizierung Payload
Masse 260.00 kg
Trockenmasse 248.00 kg
Gesamtmasse 260.00 kg
Länge 0.20 m
Durchmesser 2.80 m
Spannweite 9.00 m
Form Box + pan
Hersteller SPXS
Bus-Typ Starlink
Phasenstatus In Orbit
Besitzer/Staat SPXS/US
Most Searched
Loading...